Torna al catalogo

IRIDIUM 33 DEB

AttivoPO
NORAD 39778·DEBRIS·🇺🇸 United States

Lanciato Sep 14, 1997 da Baikonur Cosmodrome

Loading…

Prossimi Passaggi (prossime 24 ore)

TLE

AggiornatoSource: Space-Track

Epoca: Sep 13, 2026, 12:30 UTC

1 39778U 97051AAK 26256.52127101  .00001972  00000-0  44218-3 0  9997
2 39778  86.3726 283.7417 0007752 160.2751 199.8758 14.56133953646893

Traccia IRIDIUM 33 DEB in tempo reale con AllMySat

Download on the App Store